Location: Bakov nad Jizerou
(50.4784°N, 14.9394°E)
Time: 08:16:21
(UTC+00:00)

RESURS O1 DEB - Visible Passes

Search period start: 29 January 2022 00:00
Search period end: 08 February 2022 00:00
Orbit: 605 x 608 km, 97.9° (Epoch: 28 January)

Date Brightness Start Highest point End Pass type
(mag) Time Alt. Az. Time Alt. Az. Time Alt. Az.
03 Feb ? 19:12:32 10° N 19:12:32 10° N 19:12:34 10° N visible
04 Feb ? 19:25:27 10° NNW 19:25:27 10° NNW 19:25:30 10° NNW visible
05 Feb ? 18:01:29 11° NNE 18:01:29 11° NNE 18:01:40 10° NNE visible
05 Feb ? 19:38:21 10° NNW 19:38:21 10° NNW 19:38:22 10° NNW visible
06 Feb ? 18:14:22 12° NNE 18:14:22 12° NNE 18:14:51 10° N visible
07 Feb ? 18:27:13 14° N 18:27:13 14° N 18:27:55 10° N visible
